TimeEST,TemperatureF,Dew PointF,Humidity,Sea Level PressureIn,VisibilityMPH,Wind Direction,Wind SpeedMPH,Gust SpeedMPH,PrecipitationIn,Events,Conditions,WindDirDegrees,DateUTC
12:15 AM,30.2,17.6,60,30.17,10.0,NW,6.9,-,N/A,,Partly Cloudy,310,2012-11-30 05:15:00
12:35 AM,30.2,15.8,55,30.17,10.0,NW,5.8,-,N/A,,Mostly Cloudy,310,2012-11-30 05:35:00
12:55 AM,30.2,14.0,51,30.19,10.0,WNW,6.9,-,N/A,,Overcast,300,2012-11-30 05:55:00
1:15 AM,30.2,14.0,51,30.21,10.0,NW,9.2,-,N/A,,Overcast,310,2012-11-30 06:15:00
1:35 AM,30.2,14.0,51,30.22,10.0,NW,5.8,18.4,N/A,,Overcast,320,2012-11-30 06:35:00
1:55 AM,28.4,15.8,59,30.23,10.0,NW,8.1,-,N/A,,Overcast,320,2012-11-30 06:55:00
2:15 AM,28.4,15.8,59,30.24,10.0,NW,10.4,-,N/A,,Overcast,320,2012-11-30 07:15:00
2:35 AM,26.6,14.0,59,30.26,10.0,North,6.9,16.1,N/A,,Mostly Cloudy,360,2012-11-30 07:35:00
2:55 AM,24.8,12.2,59,30.28,10.0,North,9.2,16.1,N/A,,Clear,360,2012-11-30 07:55:00
3:15 AM,24.8,10.4,54,30.29,10.0,NW,4.6,-,N/A,,Clear,320,2012-11-30 08:15:00
3:35 AM,23.0,8.6,54,30.31,10.0,NNW,8.1,-,N/A,,Clear,330,2012-11-30 08:35:00
4:15 AM,21.2,6.8,54,30.34,10.0,NW,3.5,-,N/A,,Clear,310,2012-11-30 09:15:00
4:35 AM,21.2,6.8,54,30.35,10.0,NW,8.1,-,N/A,,Clear,320,2012-11-30 09:35:00
4:55 AM,19.4,6.8,58,30.37,10.0,WNW,5.8,-,N/A,,Clear,300,2012-11-30 09:55:00
5:15 AM,19.4,6.8,58,30.38,10.0,NNW,4.6,-,N/A,,Clear,340,2012-11-30 10:15:00
5:35 AM,17.6,6.8,63,30.39,10.0,NNW,3.5,-,N/A,,Clear,330,2012-11-30 10:35:00
5:55 AM,17.6,5.0,58,30.40,10.0,NNW,8.1,16.1,N/A,,Clear,330,2012-11-30 10:55:00
6:15 AM,17.6,3.2,53,30.40,10.0,WNW,9.2,-,N/A,,Clear,300,2012-11-30 11:15:00
6:55 AM,17.6,3.2,53,30.43,10.0,NW,9.2,-,N/A,,Clear,310,2012-11-30 11:55:00
7:15 AM,17.6,6.8,63,30.44,10.0,NNW,6.9,-,N/A,,Clear,330,2012-11-30 12:15:00
7:35 AM,15.8,5.0,62,30.44,10.0,NW,6.9,-,N/A,,Clear,310,2012-11-30 12:35:00
7:55 AM,17.6,6.8,63,30.45,10.0,NW,8.1,-,N/A,,Clear,320,2012-11-30 12:55:00
8:15 AM,17.6,3.2,53,30.45,10.0,NNW,6.9,16.1,N/A,,Clear,330,2012-11-30 13:15:00
8:35 AM,17.6,-0.4,45,30.46,10.0,NW,9.2,16.1,N/A,,Clear,320,2012-11-30 13:35:00
8:55 AM,17.6,1.4,49,30.46,10.0,NW,3.5,-,N/A,,Clear,320,2012-11-30 13:55:00
9:15 AM,17.6,1.4,49,30.47,10.0,North,5.8,-,N/A,,Clear,360,2012-11-30 14:15:00
9:35 AM,17.6,1.4,49,30.48,10.0,NNW,4.6,-,N/A,,Clear,330,2012-11-30 14:35:00
9:55 AM,19.4,1.4,46,30.48,10.0,North,5.8,-,N/A,,Clear,360,2012-11-30 14:55:00
10:15 AM,21.2,-0.4,39,30.48,10.0,NNW,6.9,-,N/A,,Clear,330,2012-11-30 15:15:00
10:35 AM,21.2,1.4,42,30.48,10.0,North,4.6,-,N/A,,Clear,360,2012-11-30 15:35:00
10:55 AM,23.0,-0.4,36,30.48,10.0,NW,4.6,-,N/A,,Clear,320,2012-11-30 15:55:00
11:15 AM,23.0,-0.4,36,30.47,10.0,NW,6.9,-,N/A,,Clear,320,2012-11-30 16:15:00
11:35 AM,24.8,1.4,36,30.46,10.0,NW,6.9,-,N/A,,Clear,310,2012-11-30 16:35:00
11:55 AM,24.8,1.4,36,30.46,10.0,North,8.1,-,N/A,,Clear,360,2012-11-30 16:55:00
12:15 PM,24.8,-0.4,34,30.46,10.0,NW,5.8,-,N/A,,Clear,320,2012-11-30 17:15:00
12:35 PM,26.6,-0.4,31,30.46,10.0,WNW,8.1,-,N/A,,Clear,300,2012-11-30 17:35:00
12:55 PM,26.6,-0.4,31,30.46,10.0,NNW,6.9,-,N/A,,Clear,340,2012-11-30 17:55:00
1:15 PM,26.6,-0.4,31,30.46,10.0,WNW,6.9,-,N/A,,Clear,290,2012-11-30 18:15:00
1:35 PM,26.6,-0.4,31,30.46,10.0,WNW,8.1,-,N/A,,Clear,290,2012-11-30 18:35:00
1:55 PM,26.6,-0.4,31,30.46,10.0,WNW,11.5,-,N/A,,Clear,290,2012-11-30 18:55:00
2:15 PM,26.6,1.4,34,30.47,10.0,NNW,4.6,-,N/A,,Clear,330,2012-11-30 19:15:00
2:35 PM,26.6,-0.4,31,30.48,10.0,North,6.9,-,N/A,,Clear,360,2012-11-30 19:35:00
2:55 PM,26.6,-0.4,31,30.48,10.0,WNW,8.1,-,N/A,,Clear,290,2012-11-30 19:55:00
3:15 PM,26.6,-0.4,31,30.49,10.0,WNW,8.1,-,N/A,,Clear,300,2012-11-30 20:15:00
3:35 PM,24.8,-0.4,34,30.50,10.0,NW,4.6,-,N/A,,Clear,320,2012-11-30 20:35:00
3:55 PM,24.8,-0.4,34,30.51,10.0,Calm,Calm,-,N/A,,Clear,0,2012-11-30 20:55:00
4:15 PM,24.8,-0.4,34,30.51,10.0,Calm,Calm,-,N/A,,Clear,0,2012-11-30 21:15:00
4:35 PM,24.8,-0.4,34,30.51,10.0,Calm,Calm,-,N/A,,Clear,0,2012-11-30 21:35:00
4:55 PM,23.0,1.4,39,30.52,10.0,NW,3.5,-,N/A,,Clear,320,2012-11-30 21:55:00
5:15 PM,23.0,-0.4,36,30.53,10.0,NNW,3.5,-,N/A,,Clear,330,2012-11-30 22:15:00
5:35 PM,23.0,-0.4,36,30.53,10.0,NNW,3.5,-,N/A,,Clear,340,2012-11-30 22:35:00
5:55 PM,23.0,1.4,39,30.53,10.0,NNW,4.6,-,N/A,,Clear,340,2012-11-30 22:55:00
6:15 PM,23.0,1.4,39,30.54,10.0,NW,5.8,-,N/A,,Clear,320,2012-11-30 23:15:00
6:35 PM,23.0,1.4,39,30.54,10.0,North,3.5,-,N/A,,Clear,10,2012-11-30 23:35:00
7:15 PM,21.2,1.4,42,30.56,10.0,WNW,5.8,-,N/A,,Clear,300,2012-12-01 00:15:00
7:35 PM,21.2,1.4,42,30.56,10.0,NW,4.6,-,N/A,,Clear,320,2012-12-01 00:35:00
8:15 PM,19.4,3.2,49,30.57,10.0,NNW,3.5,-,N/A,,Clear,330,2012-12-01 01:15:00
8:35 PM,21.2,3.2,46,30.57,10.0,North,3.5,-,N/A,,Clear,360,2012-12-01 01:35:00
8:55 PM,19.4,3.2,49,30.57,10.0,NW,3.5,-,N/A,,Clear,310,2012-12-01 01:55:00
9:15 PM,21.2,6.8,54,30.58,10.0,NNW,3.5,-,N/A,,Clear,340,2012-12-01 02:15:00
9:35 PM,21.2,3.2,46,30.58,10.0,NNW,3.5,-,N/A,,Clear,330,2012-12-01 02:35:00
9:55 PM,19.4,1.4,46,30.58,10.0,Calm,Calm,-,N/A,,Clear,0,2012-12-01 02:55:00
10:15 PM,19.4,3.2,49,30.58,10.0,NNW,3.5,-,N/A,,Clear,330,2012-12-01 03:15:00
10:35 PM,19.4,3.2,49,30.59,10.0,NNW,3.5,-,N/A,,Clear,330,2012-12-01 03:35:00
10:55 PM,19.4,3.2,49,30.59,10.0,NW,3.5,-,N/A,,Clear,320,2012-12-01 03:55:00
11:15 PM,19.4,3.2,49,30.59,10.0,NW,3.5,-,N/A,,Clear,320,2012-12-01 04:15:00
11:35 PM,17.6,3.2,53,30.59,10.0,Calm,Calm,-,N/A,,Clear,0,2012-12-01 04:35:00